Back to catalog

GSAT 7A

AliveMilitaryGEO
NORAD 43864·PAYLOAD·🇮🇳 India

Launched Dec 19, 2018 from Satish Dhawan Space Centre

Loading…

TLE

FreshSource: Space-Track

Epoch: Sep 14, 2026, 14:06 UTC

1 43864U 18105A   26257.58758106  .00000018  00000-0  00000-0 0  9991
2 43864   0.0264 103.7488 0001871  77.3918  86.7543  1.00273987 28349

Track GSAT 7A in real time with AllMySat

Download on the App Store